STARLINK-1625, 46131

Orbit data source: Space-Track

STARLINK-1625, 46131 is a payload satellite owned by SpaceX/Seattle (US) in LEO that was launched on Tue, 18 Aug 2020 UTC via an FALCON 9 launch vehicle from the Air Force Eastern Test Range (AFETR). Payload-class satellites include a variety of spacecraft equipped with specific instruments for various scientific and technological missions. These include communications satellites like Starlink; space stations such as the ISS; scientific satellites like the Hubble; Earth observation satellites from companies like Planet Labs, Umbra, and HawkEye 360; GPS; miniature CubeSats for education and research; and military/defense satellites.

Loading next visibility...
Identifier
46131, 2020-057Q
Orbit
LEO
Country
Flag of USUS
Related business
Manufacturer
SpaceX/Seattle
Mission
Partially operational Commercial Communications
Bus & Motor
STARLINK, Unknown motor
Mass
260 kg wet, ~248 kg dry
Launch date (UTC)
2020-08-18 (5 years ago)
Launch vehicle
FALCON 9
Launch site
Air Force Eastern Test Range (AFETR)
Object type
Payload
Rocket body
Debris
Shape & HBR
Box + 1 Pan, 10.1 m
Radar Cross Section
13.562 m², Large (>1 m²)

Expand to show TLE details & history
Last TLE update: 7 hours ago

TLE from 7 hours ago
0 STARLINK-1625
1 46131U 20057Q   25300.50002315  .01808953  00000-0  45830-1 0  9990
2 46131  53.0543 173.0037 0000955  83.7189 122.6081 15.35906441  5422
Epoch: 2025-10-27T12:00Z
TLE epoch observation values (Epoch: 2025-10-27T12:00:02.000Z)
Latitude
-20.95162°
Longitude
153.5351°
Altitude
464.441 km
Speed
7.634 km/s
True Right ascension
00h 38m 34s
True Declination
-20° 49' 56"
Sunlit
Object was in full shadow at epoch
Visualization orbit readout
Latitude
Unknown
Longitude
Unknown
Altitude
Unknown
Speed
Unknown
Apparent Right ascension
Unknown
Apparent Declination
Unknown
Sunlit
N/A
Visualization observer readout
Local Sidereal Time
14:00:35
Azimuth
Unknown
Elevation
Unknown
Doppler factor
Unknown
Orbital elements
Apogee altitude
459.157 km
Perigee altitude
457.851 km
Semi-major axis
6,836.641 km
Eccentricity
0.0001
Inclination
53.0543°
RAAN
173.0037°
Arg. of periapsis
83.7189°
True anomaly
122.61732°
Mean anomaly
122.6081°
Eccentric anomaly
122.61271°
Mean motion
3.83954 °/min
Orbital period
93.76 mins
BSTAR
0.04583
Loading maneuver chart data...
Computing Atmospheric mass density...
Loading historical data...
Loading historical data...
Loading historical data...
Loading historical data...
Loading historical data...
Loading historical data...
Loading historical data...

Documentation

Showing up to 5 results
|